Weather History for Ottumwa, IA

Change the Weather History Date:

Saturday, January 11, 2014

  Actual Average Record
Temperature  
Mean Temperature 30 °F 22 °F  
Max Temperature 37 °F 31 °F 55 °F (1992)
Min Temperature 23 °F 13 °F -12 °F (1962)
Degree Days  
Heating Degree Days 35 43  
Month to date heating degree days 492 467  
Since 1 July heating degree days 3166 2972  
Cooling Degree Days 0 0  
Month to date cooling degree days 0 0  
Year to date cooling degree days 0 0  
Moisture  
Dew Point 26 °F    
Average Humidity 78    
Maximum Humidity 92    
Minimum Humidity 64    
Precipitation  
Precipitation 0.00 in 0.03 in 0.98 in (1960)
Month to date precipitation T 0.36  
Year to date precipitation T 0.36  
Sea Level Pressure  
Sea Level Pressure 29.71 in    
Wind  
Wind Speed 12 mph (WNW)    
Max Wind Speed 23 mph    
Max Gust Speed 27 mph    
Visibility 9 miles    
Events      
T = Trace of Precipitation, MM = Missing Value Source: NWS Daily Summary

Daily Weather History Graph

Daily Weather History Graph

Search for Another Location

Airport:

Trip Planner

Search our weather history database for the weather conditions in past years. The results will help you decide how hot, cold, wet, or windy it might be!

Date:

Astronomy

Jan. 11, 2014 Rise Set
Actual Time 7:34 AM CST 5:01 PM CST
Civil Twilight 7:03 AM CST 5:32 PM CST
Nautical Twilight 6:29 AM CST 6:06 PM CST
Astronomical Twilight 5:56 AM CST 6:39 PM CST
Moon 1:46 PM CST (1/11) 3:38 AM CST (1/11)
Length of Visible Light 10h 28m
Length of Day
9h 27m
Waxing Gibbous, 83% of the Moon is Illuminated
Jan 11
Waxing Gibbous
Jan 15
Full
Jan 23
Last Quarter
Jan 30
New
Feb 6
First Quarter

Hourly Weather History & Observations

Time (CST) Temp. Windchill Dew Point Humidity Pressure Visibility Wind Dir Wind Speed Gust Speed Precip Events Conditions
12:53 AM 33.1 °F 24.9 °F 30.9 °F 92% 29.54 in 8.0 mi WNW 10.4 mph - N/A   Overcast
1:53 AM 33.1 °F 25.5 °F 30.9 °F 92% 29.56 in 8.0 mi WNW 9.2 mph - N/A   Overcast
2:43 AM 33.1 °F 23.4 °F 30.0 °F 89% 29.55 in 8.0 mi WNW 13.8 mph 21.9 mph N/A   Overcast
2:53 AM 33.1 °F 24.4 °F 30.0 °F 89% 29.57 in 8.0 mi WNW 11.5 mph - N/A   Overcast
3:53 AM 33.1 °F 23.0 °F 30.0 °F 89% 29.57 in 7.0 mi WNW 15.0 mph - N/A   Overcast
4:53 AM 33.1 °F 23.9 °F 30.0 °F 89% 29.59 in 6.0 mi WNW 12.7 mph - N/A   Overcast
5:49 AM 33.8 °F 25.8 °F 28.4 °F 81% 29.59 in 7.0 mi West 10.4 mph - N/A   Overcast
5:53 AM 32.0 °F 22.5 °F 28.9 °F 88% 29.61 in 7.0 mi West 12.7 mph - N/A   Overcast
6:34 AM 30.9 °F 22.2 °F 28.0 °F 89% 29.60 in 7.0 mi West 10.4 mph - N/A   Scattered Clouds
6:53 AM 30.9 °F 21.7 °F 28.0 °F 89% 29.62 in 7.0 mi West 11.5 mph - N/A   Clear
7:53 AM 30.0 °F 21.7 °F 27.0 °F 88% 29.64 in 5.0 mi West 9.2 mph - N/A   Clear
8:53 AM 30.9 °F 20.2 °F 27.0 °F 85% 29.66 in 7.0 mi West 15.0 mph - N/A   Clear
9:53 AM 34.0 °F 23.8 °F 26.1 °F 73% 29.69 in 10.0 mi West 16.1 mph - N/A   Clear
10:53 AM 35.1 °F 26.4 °F 26.1 °F 70% 29.69 in 10.0 mi West 12.7 mph - N/A   Clear
11:53 AM 36.0 °F 26.0 °F 26.1 °F 67% 29.69 in 10.0 mi West 17.3 mph - N/A   Clear
12:53 PM 36.0 °F 26.0 °F 26.1 °F 67% 29.69 in 10.0 mi WNW 17.3 mph - N/A   Clear
1:53 PM 37.0 °F 28.5 °F 26.1 °F 65% 29.70 in 10.0 mi NW 13.8 mph - N/A   Clear
2:23 PM 35.1 °F 25.5 °F 25.0 °F 67% 29.70 in 10.0 mi NW 15.0 mph - N/A   Mostly Cloudy
2:53 PM 34.0 °F 23.8 °F 27.0 °F 75% 29.74 in 10.0 mi NNW 16.1 mph - N/A   Overcast
3:53 PM 30.0 °F 17.9 °F 24.1 °F 79% 29.79 in 10.0 mi NW 18.4 mph 27.6 mph N/A   Overcast
4:25 PM 28.9 °F 16.1 °F 24.1 °F 82% 29.78 in 10.0 mi WNW 19.6 mph 27.6 mph N/A   Overcast
4:53 PM 28.9 °F 17.7 °F 24.1 °F 82% 29.81 in 10.0 mi NW 15.0 mph - N/A   Overcast
5:53 PM 30.0 °F 20.5 °F 25.0 °F 82% 29.83 in 10.0 mi WNW 11.5 mph - N/A   Overcast
6:53 PM 30.0 °F 21.1 °F 25.0 °F 82% 29.86 in 10.0 mi WNW 10.4 mph - N/A   Overcast
7:53 PM 30.0 °F 21.7 °F 25.0 °F 82% 29.87 in 10.0 mi West 9.2 mph - N/A   Overcast
8:18 PM 28.0 °F 21.7 °F 24.1 °F 85% 29.85 in 10.0 mi West 5.8 mph - N/A   Scattered Clouds
8:53 PM 27.0 °F 19.5 °F 23.0 °F 85% 29.87 in 10.0 mi West 6.9 mph - N/A   Clear
9:53 PM 25.0 °F 17.1 °F 21.9 °F 88% 29.87 in 10.0 mi SSW 6.9 mph - N/A   Clear
10:53 PM 24.1 °F 17.0 °F 21.0 °F 88% 29.88 in 10.0 mi SSW 5.8 mph - N/A   Clear
11:53 PM 25.0 °F 15.5 °F 21.9 °F 88% 29.86 in 10.0 mi SSW 9.2 mph - N/A   Clear